Showing default

OPS 3151, 9803

Orbit data source: Space-Track

OPS 3151, 9803 is a payload satellite owned by SAMSO (US) in GEO that was launched on Sun, 06 Feb 1977 UTC via a TITAN IIIC launch vehicle from the Air Force Eastern Test Range (AFETR). Payload-class satellites include a variety of spacecraft equipped with specific instruments for various scientific and technological missions. These include communications satellites like Starlink; space stations such as the ISS; scientific satellites like the Hubble; Earth observation satellites from companies like Planet Labs, Umbra, and HawkEye 360; GPS; miniature CubeSats for education and research; and military/defense satellites.

Loading next visibility...
Identifier
9803, 1977-007A
Orbit
GEO
Country
Flag of USUS
Related business
Manufacturer
TRW
Mission
Defense Early Warn
Bus & Motor
DSP P2, MRE-4
Mass
1,040 kg wet, ~980 kg dry
Launch date (UTC)
1977-02-06 (49 years ago)
Launch vehicle
TITAN IIIC
Launch site
Air Force Eastern Test Range (AFETR)
Object type
Payload
Rocket body
Debris
Shape & HBR
Cyl + 4 Pan, Unknown HBR
Radar Cross Section
27.525 m²

Expand to show TLE details & history
Last TLE update: 21 hours ago

TLE from 21 hours ago
0 OPS 3151
1 09803U 77007A   25260.19889816 -.00000085  00000-0  00000-0 0  9990
2 09803   5.4287 286.6688 0078621  30.5096 334.5317  0.97528456 21992
Epoch: 2025-09-17T04:46Z
TLE epoch observation values (Epoch: 2025-09-17T04:46:24.801Z)
Latitude
0.45154°
Longitude
-136.67465°
Altitude
36,268.536 km
Speed
3.068 km/s
True Right ascension
19h 25m 13s
True Declination
0° 27' 04"
Sunlit
Object was in daylight at epoch
Visualization orbit readout
Latitude
Unknown
Longitude
Unknown
Altitude
Unknown
Speed
Unknown
Apparent Right ascension
Unknown
Apparent Declination
Unknown
Sunlit
N/A
Visualization observer readout
Local Sidereal Time
18:29:46
Azimuth
Unknown
Elevation
Unknown
Doppler factor
Unknown
Orbital elements
Apogee altitude
36,912.358 km
Perigee altitude
36,236.96 km
Semi-major axis
42,952.796 km
Eccentricity
0.00786
Inclination
5.4287°
RAAN
286.6688°
Arg. of periapsis
30.5096°
True anomaly
334.14083°
Mean anomaly
334.5317°
Eccentric anomaly
334.33661°
Mean motion
0.24381 °/min
Orbital period
1,476.54 mins
BSTAR
0
Loading maneuver chart data...
Computing Atmospheric mass density...
Loading historical data...
Loading historical data...
Loading historical data...
Loading historical data...
Loading historical data...
Loading historical data...
Loading historical data...
Other satellites on launch #7 in the year 1977 (1977-02-06 UTC)

Documentation

Showing up to 5 results
|